{"data":{"norad_id":55819,"intl_designator":"2023-029Z","name":"ONEWEB-0658","alt_names":[],"object_type":"PAYLOAD","status":"ACTIVE","operator":null,"country":"UK","launch_date":"2023-03-09","launch_site_code":"AFETR","launch_vehicle":null,"mission":null,"orbit_class":"UNKNOWN","rcs_meters":null,"size_class":null,"mass_kg":null,"dimensions":null,"purposes":["comms"],"wikipedia_slug":null,"has_3d_model":false,"image_url":null,"decayed_at":null,"tle_current":{"epoch":"2026-09-20T01:36:02.498112Z","epoch_age_seconds":55655,"freshness":"FRESH","line1":"1 55819U 23029Z   26263.06669558  .00000024  00000+0  27301-4 0  9990","line2":"2 55819  87.9112 286.0523 0001627  81.8789 278.2529 13.19725574171436","mean_motion":13.19725574,"eccentricity":0.0001627,"inclination_deg":87.9112,"raan_deg":286.0523,"arg_perigee_deg":81.8789,"mean_anomaly_deg":278.2529,"bstar":2.7301e-5,"rev_number":17143,"period_min":109.1135936417,"perigee_km":1184.5377113706,"apogee_km":1186.9990061744,"semimajor_km":7563.9053587725,"source":"CELESTRAK","updated_at":"2026-09-20T09:00:44.763743Z"}}}